Location: La Silve
(44.2414°N, 5.8889°E)
Time: 05:39:37
(UTC+00:00)

Tianhe-1 - Visible Passes

Search period start: 22 June 2021 00:00
Search period end: 02 July 2021 00:00
Orbit: 375 x 386 km, 41.5° (Epoch: 21 June)

Date Brightness Start Highest point End Pass type
(mag) Time Alt. Az. Time Alt. Az. Time Alt. Az.
22 Jun 2.4 02:25:02 20° SSW 02:26:07 25° SSE 02:28:47 10° ESE visible
23 Jun 3.5 01:26:40 14° SE 01:26:40 14° SE 01:27:27 10° ESE visible
23 Jun 1.6 02:58:46 11° WSW 03:01:38 43° S 03:04:40 10° E visible
24 Jun 1.8 02:00:24 32° S 02:00:45 33° SSE 02:03:38 10° E visible
25 Jun 3.7 01:02:04 13° ESE 01:02:04 13° ESE 01:02:30 10° ESE visible
25 Jun 1.3 02:34:10 17° WSW 02:36:19 49° S 02:39:23 10° E visible
26 Jun 1.7 01:35:52 38° SE 01:35:52 38° SE 01:38:24 10° E visible
26 Jun 1.4 03:08:54 10° W 03:11:56 47° S 03:14:59 10° ESE visible
27 Jun 1.2 02:09:45 29° WSW 02:11:00 51° S 02:14:04 10° ESE visible
28 Jun 2.7 01:11:40 24° ESE 01:11:40 24° ESE 01:13:08 10° E visible
28 Jun 1.6 02:43:48 11° W 02:46:36 39° SSW 02:49:35 10° ESE visible
29 Jun 1.3 01:45:56 46° S 01:45:56 46° S 01:48:44 10° ESE visible
30 Jun 1.9 02:20:36 27° SW 02:21:15 30° SSW 02:24:04 10° SE visible
01 Jul 2.9 02:55:55 14° SW 02:56:39 15° SSW 02:58:30 10° S visible
